Location: Béaulencourt
(50.0796°N, 2.8795°E)
Time: 06:31:33
(UTC+00:00)

Cosmos 1441 Rocket - Pass Details

Date: 20 January 2026
Orbit: 417 x 442 km, 81.1° (Epoch: 18 February)

Event Time Altitude Azimuth Distance (km) Brightness Sun altitude
Rises 06:52:48 0° 350° (N) 2,433 6.3 -7.2°
Reaches altitude 10° 06:54:54 10° 355° (N) 1,554 5.4 -6.8°
Maximum altitude 06:58:15 58° 75° (ENE) 511 3.5 -6.4°
Drops below altitude 10° 07:01:31 10° 156° (SSE) 1,522 6.4 -5.9°
Sets 07:03:34 0° 160° (SSE) 2,377 7.3 -5.6°
